timestamp,wind_dir_avg,wind_spd_max_dir,wind_spd_avg,wind_spd_gust,battery_voltage,lat,long
2017-12-29 00:00:00+00:00,281.0,278.0,7.91,8.77,,47.59359,-54.27349
2017-12-29 00:10:00+00:00,288.0,277.0,7.25,8.29,,47.59359,-54.27349
2017-12-29 00:20:00+00:00,283.0,282.0,7.52,8.88,,47.59359,-54.27349
2017-12-29 00:30:00+00:00,286.0,296.0,7.62,8.76,,47.59359,-54.27349
2017-12-29 00:40:00+00:00,280.0,288.0,7.73,8.95,,47.59359,-54.27349
2017-12-29 00:50:00+00:00,289.0,293.0,8.06,8.9,,47.59359,-54.27349
2017-12-29 01:00:00+00:00,295.0,293.0,7.47,8.48,,47.59359,-54.27349
2017-12-29 01:10:00+00:00,301.0,292.0,6.81,8.13,,47.59359,-54.27349
2017-12-29 01:20:00+00:00,305.0,309.0,7.0,8.54,,47.59359,-54.27349
2017-12-29 01:30:00+00:00,302.0,304.0,6.09,7.16,,47.59359,-54.27349
2017-12-29 01:40:00+00:00,288.0,291.0,6.91,8.41,,47.59359,-54.27349
2017-12-29 01:50:00+00:00,300.0,300.0,7.74,8.97,,47.59359,-54.27349
2017-12-29 02:00:00+00:00,301.0,302.0,8.94,10.06,,47.59359,-54.27349
2017-12-29 02:10:00+00:00,294.0,294.0,7.45,8.47,,47.59359,-54.27349
2017-12-29 02:20:00+00:00,293.0,289.0,8.67,10.32,,47.59359,-54.27349
2017-12-29 02:30:00+00:00,297.0,286.0,7.35,9.96,,47.59359,-54.27349
2017-12-29 02:40:00+00:00,292.0,304.0,6.84,8.19,,47.59359,-54.27349
2017-12-29 02:50:00+00:00,279.0,284.0,6.88,8.05,,47.59359,-54.27349
2017-12-29 03:00:00+00:00,284.0,287.0,7.41,8.95,,47.59359,-54.27349
2017-12-29 03:10:00+00:00,282.0,269.0,6.37,8.22,,47.59359,-54.27349
2017-12-29 03:20:00+00:00,284.0,281.0,6.39,8.04,,47.59359,-54.27349
2017-12-29 03:30:00+00:00,280.0,278.0,6.89,9.13,,47.59359,-54.27349
2017-12-29 03:40:00+00:00,281.0,287.0,7.96,9.34,,47.59359,-54.27349
2017-12-29 03:50:00+00:00,277.0,283.0,7.28,8.15,,47.59359,-54.27349
2017-12-29 04:00:00+00:00,280.0,278.0,7.4,9.52,,47.59359,-54.27349
2017-12-29 04:10:00+00:00,275.0,278.0,6.99,8.82,,47.59359,-54.27349
2017-12-29 04:20:00+00:00,276.0,276.0,6.57,8.49,,47.59359,-54.27349
2017-12-29 04:30:00+00:00,290.0,284.0,7.69,9.61,,47.59359,-54.27349
2017-12-29 04:40:00+00:00,296.0,296.0,7.07,9.31,,47.59359,-54.27349
2017-12-29 04:50:00+00:00,278.0,280.0,5.76,6.61,,47.59359,-54.27349
2017-12-29 05:00:00+00:00,307.0,301.0,5.99,7.66,,47.59359,-54.27349
2017-12-29 05:10:00+00:00,312.0,319.0,7.1,10.03,,47.59359,-54.27349
2017-12-29 05:20:00+00:00,305.0,306.0,8.29,10.59,,47.59359,-54.27349
2017-12-29 05:30:00+00:00,319.0,320.0,7.22,9.65,,47.59359,-54.27349
2017-12-29 05:40:00+00:00,308.0,306.0,7.16,9.75,,47.59359,-54.27349
2017-12-29 05:50:00+00:00,310.0,308.0,7.38,8.21,,47.59359,-54.27349
2017-12-29 06:00:00+00:00,312.0,318.0,7.72,9.24,,47.59359,-54.27349
2017-12-29 06:10:00+00:00,320.0,320.0,8.09,9.93,,47.59359,-54.27349
2017-12-29 06:20:00+00:00,317.0,308.0,9.48,10.97,,47.59359,-54.27349
2017-12-29 06:30:00+00:00,320.0,311.0,9.16,12.54,,47.59359,-54.27349
2017-12-29 06:40:00+00:00,318.0,318.0,9.39,10.47,,47.59359,-54.27349
2017-12-29 06:50:00+00:00,322.0,319.0,10.65,12.71,,47.59359,-54.27349
2017-12-29 07:00:00+00:00,317.0,318.0,10.54,12.1,,47.59359,-54.27349
2017-12-29 07:10:00+00:00,312.0,322.0,8.85,10.26,,47.59359,-54.27349
2017-12-29 07:20:00+00:00,319.0,320.0,8.25,10.0,,47.59359,-54.27349
2017-12-29 07:30:00+00:00,321.0,320.0,9.05,10.07,,47.59359,-54.27349
2017-12-29 07:40:00+00:00,310.0,309.0,8.62,10.03,,47.59359,-54.27349
2017-12-29 07:50:00+00:00,316.0,319.0,7.37,9.01,,47.59359,-54.27349
2017-12-29 08:00:00+00:00,307.0,308.0,8.78,11.01,,47.59359,-54.27349
2017-12-29 08:10:00+00:00,315.0,310.0,9.68,10.86,,47.59359,-54.27349
2017-12-29 08:20:00+00:00,317.0,315.0,8.2,10.6,,47.59359,-54.27349
2017-12-29 08:30:00+00:00,316.0,311.0,9.67,13.4,,47.59359,-54.27349
2017-12-29 08:40:00+00:00,322.0,324.0,9.68,11.45,,47.59359,-54.27349
2017-12-29 08:50:00+00:00,315.0,309.0,10.18,11.94,,47.59359,-54.27349
2017-12-29 09:00:00+00:00,314.0,320.0,8.95,10.57,,47.59359,-54.27349
2017-12-29 09:10:00+00:00,316.0,314.0,9.54,11.13,,47.59359,-54.27349
2017-12-29 09:20:00+00:00,311.0,320.0,7.72,8.87,,47.59359,-54.27349
2017-12-29 09:30:00+00:00,310.0,309.0,9.4,11.85,,47.59359,-54.27349
2017-12-29 09:40:00+00:00,311.0,309.0,9.26,10.4,,47.59359,-54.27349
2017-12-29 09:50:00+00:00,308.0,304.0,8.37,9.52,,47.59359,-54.27349
2017-12-29 10:00:00+00:00,305.0,299.0,8.31,10.69,,47.59359,-54.27349
2017-12-29 10:10:00+00:00,303.0,300.0,7.11,9.48,,47.59359,-54.27349
2017-12-29 10:20:00+00:00,307.0,294.0,7.82,9.09,,47.59359,-54.27349
2017-12-29 10:30:00+00:00,313.0,319.0,7.56,10.09,,47.59359,-54.27349
2017-12-29 10:40:00+00:00,305.0,320.0,7.31,9.6,,47.59359,-54.27349
2017-12-29 10:50:00+00:00,313.0,317.0,5.19,5.93,,47.59359,-54.27349
2017-12-29 11:00:00+00:00,317.0,311.0,7.22,9.41,,47.59359,-54.27349
2017-12-29 11:10:00+00:00,324.0,324.0,8.2,9.94,,47.59359,-54.27349
2017-12-29 11:20:00+00:00,324.0,331.0,9.68,11.21,,47.59359,-54.27349
2017-12-29 11:30:00+00:00,322.0,326.0,12.04,14.53,,47.59359,-54.27349
2017-12-29 11:40:00+00:00,319.0,313.0,11.23,13.73,,47.59359,-54.27349
2017-12-29 11:50:00+00:00,326.0,334.0,9.62,12.31,,47.59359,-54.27349
2017-12-29 12:00:00+00:00,325.0,327.0,12.87,16.47,,47.59359,-54.27349
2017-12-29 12:10:00+00:00,332.0,329.0,11.91,14.58,,47.59359,-54.27349
2017-12-29 12:20:00+00:00,334.0,334.0,13.91,16.61,,47.59359,-54.27349
2017-12-29 12:30:00+00:00,330.0,322.0,13.58,17.2,,47.59359,-54.27349
2017-12-29 12:40:00+00:00,337.0,341.0,13.07,15.74,,47.59359,-54.27349
2017-12-29 12:50:00+00:00,332.0,334.0,12.65,15.29,,47.59359,-54.27349
2017-12-29 13:00:00+00:00,333.0,337.0,10.29,13.45,,47.59359,-54.27349
2017-12-29 13:10:00+00:00,332.0,335.0,11.91,14.34,,47.59359,-54.27349
2017-12-29 13:20:00+00:00,339.0,341.0,13.01,15.05,,47.59359,-54.27349
2017-12-29 13:30:00+00:00,336.0,342.0,11.74,13.99,,47.59359,-54.27349
2017-12-29 13:40:00+00:00,330.0,327.0,12.58,16.62,,47.59359,-54.27349
2017-12-29 13:50:00+00:00,334.0,343.0,11.55,13.11,,47.59359,-54.27349
2017-12-29 14:00:00+00:00,331.0,340.0,10.69,13.28,,47.59359,-54.27349
2017-12-29 14:10:00+00:00,337.0,343.0,10.63,12.14,,47.59359,-54.27349
2017-12-29 14:20:00+00:00,337.0,342.0,11.62,13.75,,47.59359,-54.27349
2017-12-29 14:30:00+00:00,336.0,338.0,11.91,13.84,,47.59359,-54.27349
2017-12-29 14:40:00+00:00,336.0,343.0,11.65,13.89,,47.59359,-54.27349
2017-12-29 14:50:00+00:00,338.0,342.0,12.12,14.56,,47.59359,-54.27349
2017-12-29 15:00:00+00:00,337.0,346.0,12.16,13.86,,47.59359,-54.27349
2017-12-29 15:10:00+00:00,328.0,316.0,12.88,15.82,,47.59359,-54.27349
2017-12-29 15:20:00+00:00,338.0,341.0,15.86,18.02,,47.59359,-54.27349
2017-12-29 15:30:00+00:00,345.0,343.0,13.76,16.26,,47.59359,-54.27349
2017-12-29 15:40:00+00:00,342.0,340.0,12.7,14.9,,47.59359,-54.27349
2017-12-29 15:50:00+00:00,344.0,340.0,11.44,13.57,,47.59359,-54.27349
2017-12-29 16:00:00+00:00,344.0,339.0,12.36,14.19,,47.59359,-54.27349
2017-12-29 16:10:00+00:00,349.0,342.0,13.09,14.56,,47.59359,-54.27349
2017-12-29 16:20:00+00:00,353.0,2.0,10.58,12.3,,47.59359,-54.27349
2017-12-29 16:30:00+00:00,351.0,345.0,13.32,15.19,,47.59359,-54.27349
2017-12-29 16:40:00+00:00,357.0,358.0,9.86,11.91,,47.59359,-54.27349
2017-12-29 16:50:00+00:00,350.0,352.0,10.61,13.02,,47.59359,-54.27349
2017-12-29 17:00:00+00:00,352.0,354.0,10.2,12.31,,47.59359,-54.27349
2017-12-29 17:10:00+00:00,347.0,345.0,12.23,15.18,,47.59359,-54.27349
2017-12-29 17:20:00+00:00,353.0,0.0,12.27,14.49,,47.59359,-54.27349
2017-12-29 17:30:00+00:00,359.0,359.0,12.75,14.86,,47.59359,-54.27349
2017-12-29 17:40:00+00:00,347.0,348.0,11.48,13.1,,47.59359,-54.27349
2017-12-29 17:50:00+00:00,339.0,338.0,10.41,12.51,,47.59359,-54.27349
2017-12-29 18:00:00+00:00,347.0,346.0,10.45,12.4,,47.59359,-54.27349
2017-12-29 18:10:00+00:00,344.0,343.0,9.98,11.04,,47.59359,-54.27349
2017-12-29 18:20:00+00:00,1.0,2.0,10.08,13.04,,47.59359,-54.27349
2017-12-29 18:30:00+00:00,351.0,349.0,12.11,14.53,,47.59359,-54.27349
2017-12-29 18:40:00+00:00,349.0,346.0,11.08,13.11,,47.59359,-54.27349
2017-12-29 18:50:00+00:00,1.0,1.0,11.02,13.4,,47.59359,-54.27349
2017-12-29 19:00:00+00:00,339.0,334.0,8.21,9.51,,47.59359,-54.27349
2017-12-29 19:10:00+00:00,352.0,349.0,8.08,9.0,,47.59359,-54.27349
2017-12-29 19:20:00+00:00,348.0,347.0,10.53,12.38,,47.59359,-54.27349
2017-12-29 19:30:00+00:00,345.0,345.0,9.9,11.38,,47.59359,-54.27349
2017-12-29 19:40:00+00:00,346.0,347.0,7.92,9.61,,47.59359,-54.27349
2017-12-29 19:50:00+00:00,346.0,346.0,8.2,9.26,,47.59359,-54.27349
2017-12-29 20:00:00+00:00,337.0,330.0,7.9,9.49,,47.59359,-54.27349
2017-12-29 20:10:00+00:00,345.0,343.0,8.06,10.08,,47.59359,-54.27349
2017-12-29 20:20:00+00:00,335.0,341.0,7.84,8.94,,47.59359,-54.27349
2017-12-29 20:30:00+00:00,352.0,354.0,7.16,8.37,,47.59359,-54.27349
2017-12-29 20:40:00+00:00,339.0,329.0,7.98,9.9,,47.59359,-54.27349
2017-12-29 20:50:00+00:00,350.0,358.0,8.95,9.88,,47.59359,-54.27349
2017-12-29 21:00:00+00:00,345.0,351.0,8.07,9.24,,47.59359,-54.27349
2017-12-29 21:10:00+00:00,1.0,4.0,9.73,11.72,,47.59359,-54.27349
2017-12-29 21:20:00+00:00,5.0,358.0,8.05,9.55,,47.59359,-54.27349
2017-12-29 21:30:00+00:00,347.0,349.0,6.55,7.8,,47.59359,-54.27349
2017-12-29 21:40:00+00:00,353.0,354.0,7.73,8.75,,47.59359,-54.27349
2017-12-29 21:50:00+00:00,353.0,356.0,7.73,8.37,,47.59359,-54.27349
2017-12-29 22:00:00+00:00,348.0,349.0,7.29,8.18,,47.59359,-54.27349
2017-12-29 22:10:00+00:00,349.0,350.0,5.71,7.12,,47.59359,-54.27349
2017-12-29 22:20:00+00:00,3.0,0.0,7.15,8.29,,47.59359,-54.27349
2017-12-29 22:30:00+00:00,356.0,356.0,5.35,6.08,,47.59359,-54.27349
2017-12-29 22:40:00+00:00,339.0,339.0,5.09,6.29,,47.59359,-54.27349
2017-12-29 22:50:00+00:00,345.0,346.0,7.46,8.79,,47.59359,-54.27349
2017-12-29 23:00:00+00:00,354.0,353.0,6.08,7.09,,47.59359,-54.27349
2017-12-29 23:10:00+00:00,341.0,338.0,7.11,8.44,,47.59359,-54.27349
2017-12-29 23:20:00+00:00,352.0,351.0,6.6,7.26,,47.59359,-54.27349
2017-12-29 23:30:00+00:00,355.0,359.0,7.85,9.85,,47.59359,-54.27349
2017-12-29 23:40:00+00:00,352.0,348.0,6.92,7.67,,47.59359,-54.27349
2017-12-29 23:50:00+00:00,344.0,343.0,6.31,8.15,,47.59359,-54.27349
